KC3QJO Weather Reports


time (UTC)temp
F
wind
direction
speed
knots
gust
knots
rain 1hr
in
rain 24hr
in
rain mn
in
humidity
%
barometer
mb
20260506162551 59 157 7.0 20.9 0.07 0.12 0.12 91 1006.9
20260506162053 59 207 8.7 20.9 0.07 0.12 0.12 91 1007.0
20260506161553 59 161 10.4 18.2 0.07 0.12 0.12 91 1006.8
20260506161056 59 163 7.8 20.0 0.06 0.11 0.11 91 1006.8
20260506160551 59 176 11.3 20.0 0.06 0.11 0.11 91 1006.9
20260506160055 59 190 10.4 19.1 0.06 0.11 0.11 91 1006.9
20260506155555 59 164 11.3 17.4 0.07 0.11 0.11 90 1007.1
20260506155051 59 187 7.8 15.6 0.06 0.10 0.10 90 1007.5
20260506154558 59 203 7.8 14.8 0.06 0.09 0.09 90 1007.7
20260506154052 60 200 7.8 15.6 0.05 0.08 0.08 90 1007.8
20260506153552 60 183 7.8 16.5 0.05 0.07 0.07 89 1007.9
20260506153110 60 210 8.7 27.8 0.04 0.06 0.06 89 1007.8
20260506152552 60 165 11.3 27.8 0.04 0.05 0.05 89 1007.9
20260506152052 60 182 8.7 14.8 0.05 0.05 0.05 89 1007.8
20260506151556 60 221 7.8 14.8 0.05 0.05 0.05 88 1007.9
20260506151055 60 233 7.0 16.5 0.05 0.05 0.05 88 1007.8
20260506150551 60 191 9.6 16.5 0.05 0.05 0.05 88 1007.6
20260506150101 61 191 6.1 11.3 0.05 0.05 0.05 88 1007.6
20260506145552 61 216 7.0 10.4 0.04 0.04 0.04 87 1007.6
20260506145051 61 198 4.3 9.6 0.04 0.04 0.04 87 1007.7
20260506144559 61 214 5.2 10.4 0.03 0.03 0.03 86 1007.6
20260506144051 61 203 6.1 11.3 0.03 0.03 0.03 85 1007.7
20260506143551 61 187 5.2 11.3 0.02 0.02 0.02 85 1007.8
20260506143055 61 227 3.5 8.7 0.02 0.02 0.02 84 1008.0
20260506142552 62 207 4.3 9.6 0.01 0.01 0.01 83 1007.9
20260506142050 62 215 5.2 10.4 0.00 0.00 0.00 83 1008.1
20260506141551 62 186 4.3 13.0 0.00 0.00 0.00 82 1007.9
20260506141055 62 179 4.3 13.0 0.00 0.00 0.00 82 1007.9
20260506140556 62 207 7.0 12.2 0.00 0.00 0.00 82 1007.9
20260506140053 62 199 4.3 10.4 0.00 0.00 0.00 82 1007.6
20260506135551 62 209 5.2 16.5 0.00 0.00 0.00 81 1007.7
20260506135051 62 217 7.0 16.5 0.00 0.00 0.00 81 1007.8
20260506134556 62 211 5.2 12.2 0.00 0.00 0.00 81 1007.8
20260506134055 62 199 6.1 13.0 0.00 0.00 0.00 80 1007.9
20260506133552 62 194 4.3 13.0 0.00 0.00 0.00 80 1008.0
20260506133056 62 210 5.2 13.9 0.00 0.00 0.00 79 1008.0
20260506132552 62 201 5.2 13.9 0.00 0.00 0.00 79 1007.9
20260506132052 63 183 4.3 15.6 0.00 0.00 0.00 78 1007.9
20260506131556 63 216 6.1 20.0 0.00 0.00 0.00 78 1008.0
20260506131051 63 200 8.7 20.0 0.00 0.00 0.00 77 1008.1
20260506130551 63 222 9.6 16.5 0.00 0.00 0.00 76 1008.1
20260506130058 63 240 5.2 14.8 0.00 0.00 0.00 76 1008.1
20260506125553 64 227 6.1 13.0 0.00 0.00 0.00 75 1008.1
20260506125051 64 212 6.1 14.8 0.00 0.00 0.00 74 1008.1
20260506124601 64 208 8.7 14.8 0.00 0.00 0.00 74 1008.0
20260506124051 64 202 6.1 11.3 0.00 0.00 0.00 74 1007.9
20260506123551 64 210 4.3 12.2 0.00 0.00 0.00 74 1008.0
20260506123053 64 212 7.8 13.9 0.00 0.00 0.00 74 1007.9
20260506122552 64 209 7.0 13.9 0.00 0.00 0.00 74 1007.8
20260506122051 64 214 7.8 13.0 0.00 0.00 0.00 74 1007.7
20260506121556 64 229 5.2 13.9 0.00 0.00 0.00 74 1007.8
20260506121051 64 222 6.1 13.9 0.00 0.00 0.00 74 1007.8
20260506120551 64 206 5.2 11.3 0.00 0.00 0.00 74 1007.8
20260506120057 64 218 7.0 12.2 0.00 0.00 0.00 74 1007.8
20260506115552 64 210 5.2 14.8 0.00 0.00 0.00 74 1007.8
20260506115050 64 181 7.0 14.8 0.00 0.00 0.00 74 1007.9
20260506114559 64 170 5.2 13.9 0.00 0.00 0.00 74 1007.9
20260506114051 64 213 7.8 13.9 0.00 0.00 0.00 74 1007.8
20260506113551 64 200 5.2 14.8 0.00 0.00 0.00 74 1007.9
20260506113058 64 204 6.1 14.8 0.00 0.00 0.00 74 1007.9
20260506112551 64 216 7.0 13.0 0.00 0.00 0.00 74 1007.8
20260506112051 64 220 7.0 13.0 0.00 0.00 0.00 74 1007.9
20260506111555 64 184 6.1 14.8 0.00 0.00 0.00 74 1007.8
20260506111051 64 205 7.0 16.5 0.00 0.00 0.00 74 1007.7
20260506110551 64 154 8.7 16.5 0.00 0.00 0.00 74 1007.7
20260506110055 64 163 7.8 16.5 0.00 0.00 0.00 74 1007.6
20260506105554 64 199 7.0 15.6 0.00 0.00 0.00 74 1007.6
20260506105055 64 243 7.0 18.2 0.00 0.00 0.00 74 1007.4
20260506104558 64 211 8.7 18.2 0.00 0.00 0.00 74 1007.5
20260506104051 63 164 6.1 13.0 0.00 0.00 0.00 75 1007.4
20260506103551 63 171 6.1 13.0 0.00 0.00 0.00 74 1007.3
20260506103057 63 204 6.1 13.0 0.00 0.00 0.00 74 1007.3
20260506102551 63 246 7.0 15.6 0.00 0.00 0.00 74 1007.3
20260506102050 63 166 7.0 15.6 0.00 0.00 0.00 74 1007.3
20260506101555 64 168 7.0 13.9 0.00 0.00 0.00 74 1007.3
20260506101053 64 217 7.8 13.0 0.00 0.00 0.00 73 1007.4
20260506100553 64 177 6.1 14.8 0.00 0.00 0.00 73 1007.4
20260506100052 64 187 6.1 14.8 0.00 0.00 0.00 73 1007.5
20260506095553 64 192 5.2 14.8 0.00 0.03 0.00 73 1007.7
20260506095052 64 219 6.1 12.2 0.00 0.03 0.00 73 1007.5
20260506094559 64 168 7.0 13.0 0.00 0.03 0.00 72 1007.5
20260506094051 64 212 7.0 13.0 0.00 0.03 0.00 72 1007.3
20260506093551 64 212 6.1 12.2 0.00 0.03 0.00 72 1007.4
20260506093054 64 176 6.1 17.4 0.00 0.03 0.00 71 1007.5
20260506092551 64 169 7.0 17.4 0.00 0.03 0.00 71 1007.4
20260506092051 64 210 6.1 13.9 0.00 0.03 0.00 71 1007.4
20260506091558 64 202 7.0 13.9 0.00 0.03 0.00 71 1007.3
20260506091054 64 185 7.0 13.0 0.00 0.03 0.00 70 1007.2
20260506090555 64 170 5.2 12.2 0.00 0.03 0.00 70 1007.3
20260506090100 64 164 7.0 13.0 0.00 0.03 0.00 70 1007.4
20260506085551 64 178 8.7 13.9 0.00 0.04 0.00 69 1007.5
20260506085051 64 189 7.0 13.9 0.00 0.04 0.00 69 1007.5
20260506084555 64 206 5.2 12.2 0.00 0.04 0.00 69 1007.6
20260506084051 64 173 6.1 14.8 0.00 0.04 0.00 69 1007.5
20260506083551 64 187 5.2 14.8 0.00 0.04 0.00 68 1007.6
20260506083055 64 193 6.1 12.2 0.00 0.04 0.00 68 1007.5
20260506082551 64 182 7.0 12.2 0.00 0.04 0.00 68 1007.5
20260506082052 64 175 5.2 11.3 0.00 0.04 0.00 67 1007.5
20260506081554 64 160 5.2 13.9 0.00 0.04 0.00 67 1007.6
20260506081052 65 187 7.0 13.9 0.00 0.04 0.00 67 1007.5
20260506080552 65 182 6.1 13.9 0.00 0.04 0.00 66 1007.5
20260506080104 65 206 7.8 13.9 0.00 0.04 0.00 66 1007.5
20260506073054 65 173 6.1 14.8 0.00 0.04 0.00 64 1007.6
20260506072551 65 189 6.1 12.2 0.00 0.04 0.00 64 1007.6
20260506072051 65 184 6.1 12.2 0.00 0.04 0.00 64 1007.6
20260506071604 65 209 6.1 12.2 0.00 0.04 0.00 63 1007.7
20260506071050 65 189 6.1 12.2 0.00 0.04 0.00 63 1007.8
20260506070551 65 176 4.3 9.6 0.00 0.04 0.00 63 1007.8
20260506062051 66 193 4.3 13.0 0.00 0.04 0.00 61 1008.1
20260506061556 66 203 5.2 13.9 0.00 0.04 0.00 60 1008.2
20260506061051 66 223 7.0 13.9 0.00 0.04 0.00 60 1008.2
20260506060551 66 183 6.1 15.6 0.00 0.04 0.00 60 1008.3
20260506051052 66 210 6.1 13.0 0.00 0.04 0.00 59 1008.7
20260506050551 66 200 7.0 13.0 0.00 0.04 0.00 59 1008.7
20260506050104 66 211 6.1 10.4 0.00 0.04 0.00 59 1008.6
20260506045051 66 183 5.2 11.3 0.00 0.04 0.00 58 1008.8
20260506044555 66 175 5.2 11.3 0.00 0.04 0.00 58 1008.7
20260506044053 67 200 5.2 8.7 0.00 0.04 0.00 58 1008.7
20260506043551 66 182 4.3 8.7 0.00 0.04 0.00 57 1008.7
20260506043054 67 197 4.3 10.4 0.00 0.04 0.00 57 1008.7
20260506042551 67 211 5.2 10.4 0.00 0.04 0.00 56 1008.8
20260506042052 67 170 4.3 11.3 0.00 0.04 0.00 56 1008.9
20260506041556 67 177 5.2 13.9 0.00 0.04 0.00 56 1008.8
20260506041052 68 181 7.0 13.9 0.00 0.04 0.00 55 1008.7
20260506040551 68 158 6.1 11.3 0.00 0.04 0.00 55 1008.8
20260506040056 68 227 7.0 11.3 0.00 0.04 0.00 54 1008.7
20260506035555 68 200 6.1 12.2 0.00 0.04 0.04 54 1008.7
20260506035052 68 187 7.0 12.2 0.00 0.04 0.04 54 1008.8
20260506034613 68 181 5.2 12.2 0.00 0.04 0.04 54 1008.8
20260506034054 68 204 6.1 12.2 0.00 0.04 0.04 53 1008.8
20260506033551 68 200 5.2 12.2 0.00 0.04 0.04 53 1008.7
20260506033054 68 194 6.1 12.2 0.00 0.04 0.04 52 1008.6
20260506032554 68 204 6.1 11.3 0.00 0.04 0.04 52 1008.7
20260506032053 69 216 6.1 11.3 0.00 0.04 0.04 51 1008.7
20260506031607 69 191 6.1 11.3 0.00 0.04 0.04 51 1008.7
20260506031052 69 184 5.2 12.2 0.00 0.04 0.04 51 1008.7
20260506030550 69 217 5.2 14.8 0.00 0.04 0.04 51 1008.6
20260506030053 69 160 5.2 14.8 0.00 0.04 0.04 50 1008.7
20260506025553 69 179 7.0 14.8 0.00 0.04 0.04 50 1008.6
20260506025051 69 203 5.2 13.9 0.00 0.04 0.04 50 1008.6
20260506024616 70 165 7.0 13.9 0.00 0.04 0.04 49 1008.7
20260506024051 70 205 4.3 14.8 0.00 0.04 0.04 49 1008.7
20260506023554 70 173 7.8 14.8 0.00 0.04 0.04 48 1008.8
20260506023100 70 187 7.0 13.9 0.00 0.04 0.04 48 1008.8
20260506022553 70 215 6.1 13.9 0.00 0.04 0.04 48 1008.8
20260506022051 70 195 5.2 12.2 0.00 0.04 0.04 48 1008.8
20260506021559 71 188 6.1 13.9 0.00 0.04 0.04 47 1008.8
20260506021054 71 204 4.3 13.9 0.00 0.04 0.04 47 1008.7
20260506020554 71 205 5.2 14.8 0.00 0.04 0.04 46 1008.7
20260506015551 72 201 7.8 16.5 0.00 0.04 0.04 45 1008.6
20260506015051 72 166 8.7 16.5 0.00 0.04 0.04 45 1008.6
20260506014559 72 189 7.0 17.4 0.00 0.04 0.04 45 1008.5
20260506014055 72 168 9.6 17.4 0.00 0.04 0.04 44 1008.5
20260506013555 72 204 6.1 13.0 0.00 0.04 0.04 44 1008.4
20260506013110 72 206 6.1 13.0 0.00 0.04 0.04 43 1008.3
20260506012553 73 230 7.0 20.9 0.00 0.04 0.04 43 1008.2
20260506012050 73 178 7.8 23.5 0.00 0.04 0.04 42 1008.1
20260506011610 73 189 8.7 23.5 0.00 0.04 0.04 42 1008.0
20260506011051 72 202 7.0 13.9 0.00 0.04 0.04 43 1008.0
20260506010551 73 199 7.0 16.5 0.00 0.04 0.04 43 1008.0
20260506010058 73 155 7.0 16.5 0.00 0.04 0.04 42 1007.9
20260506005552 73 212 7.0 13.0 0.00 0.04 0.04 42 1007.8
20260506005053 73 202 7.0 11.3 0.00 0.04 0.04 41 1007.8
20260506004554 73 207 6.1 11.3 0.00 0.04 0.04 41 1007.7
20260506004051 73 189 4.3 11.3 0.00 0.04 0.04 41 1007.8
20260506003551 73 202 4.3 14.8 0.00 0.04 0.04 41 1007.7
20260506003053 74 169 6.1 14.8 0.00 0.04 0.04 41 1007.5
20260506002551 74 224 7.8 17.4 0.00 0.04 0.04 40 1007.5
20260506002051 74 169 7.0 17.4 0.00 0.04 0.04 40 1007.5
20260506001555 74 183 7.0 15.6 0.00 0.04 0.04 40 1007.4
20260506001051 74 170 8.7 18.2 0.00 0.04 0.04 40 1007.3
20260506000551 74 218 8.7 18.2 0.00 0.04 0.04 40 1007.3
20260506000052 74 210 7.0 16.5 0.00 0.04 0.04 40 1007.4
20260505235551 75 208 8.7 17.4 0.00 0.04 0.04 39 1007.3
20260505235052 75 168 7.8 17.4 0.00 0.04 0.04 39 1007.2
20260505234552 75 184 6.1 16.5 0.00 0.04 0.04 38 1007.2
20260505234051 75 216 7.0 18.2 0.00 0.04 0.04 37 1007.1
20260505233554 75 151 10.4 20.9 0.00 0.04 0.04 37 1007.2
20260505233055 75 173 8.7 20.9 0.00 0.04 0.04 37 1007.1
20260505232552 76 192 11.3 20.9 0.00 0.04 0.04 38 1007.3
20260505232058 76 216 7.0 18.2 0.00 0.04 0.04 38 1007.2
20260505231556 76 204 8.7 23.5 0.00 0.04 0.04 37 1007.2
20260505231054 76 218 9.6 23.5 0.00 0.04 0.04 37 1007.1
20260505230551 76 204 10.4 21.7 0.00 0.04 0.04 37 1007.0
20260505230104 76 201 9.6 22.6 0.00 0.04 0.04 37 1007.1
20260505225551 76 170 13.0 23.5 0.00 0.04 0.04 36 1007.0
20260505225052 77 211 11.3 24.3 0.00 0.04 0.04 37 1006.9
20260505224600 77 152 11.3 24.3 0.00 0.04 0.04 36 1006.8
20260505224051 77 207 10.4 22.6 0.00 0.04 0.04 37 1006.8
20260505223553 77 215 11.3 20.9 0.00 0.04 0.04 37 1006.8
20260505223108 77 171 9.6 23.5 0.00 0.04 0.04 37 1006.8
20260505222554 77 216 11.3 23.5 0.00 0.04 0.04 37 1006.7
20260505222054 77 189 10.4 21.7 0.00 0.04 0.04 37 1006.7
20260505221555 77 182 10.4 20.0 0.00 0.04 0.04 37 1006.6
20260505221056 77 191 7.8 18.2 0.00 0.04 0.04 38 1006.6
20260505220557 77 173 7.8 16.5 0.00 0.04 0.04 38 1006.6
20260505220108 77 171 9.6 21.7 0.00 0.04 0.04 38 1006.6
20260505215555 77 220 9.6 21.7 0.00 0.04 0.04 37 1006.7
20260505215051 77 179 9.6 28.7 0.00 0.04 0.04 37 1006.6
20260505214553 77 173 13.0 28.7 0.00 0.04 0.04 36 1006.6
20260505214051 78 162 12.2 23.5 0.00 0.04 0.04 36 1006.8
20260505213555 78 175 7.8 23.5 0.00 0.04 0.04 37 1006.7
20260505213100 78 183 12.2 23.5 0.00 0.04 0.04 36 1006.7
20260505212554 78 213 11.3 26.9 0.00 0.04 0.04 37 1006.7
20260505212051 78 219 10.4 26.9 0.00 0.04 0.04 36 1006.7
20260505211559 78 177 13.0 24.3 0.00 0.04 0.04 36 1006.8
20260505211051 78 164 8.7 24.3 0.00 0.04 0.04 36 1006.8
20260505210550 78 207 11.3 24.3 0.00 0.04 0.04 37 1006.7
20260505210058 78 152 12.2 22.6 0.00 0.04 0.04 36 1006.7
20260505205554 78 214 12.2 20.9 0.00 0.04 0.04 35 1006.6
20260505205052 78 189 8.7 22.6 0.00 0.04 0.04 35 1006.6
20260505204601 78 221 12.2 22.6 0.00 0.04 0.04 35 1006.6
20260505204051 78 208 10.4 22.6 0.00 0.04 0.04 37 1006.5
20260505203551 77 254 7.8 24.3 0.00 0.04 0.04 36 1006.5
20260505203100 77 208 13.9 24.3 0.00 0.04 0.04 35 1006.6
20260505202551 78 208 12.2 19.1 0.00 0.04 0.04 36 1006.4
20260505202052 78 209 10.4 21.7 0.00 0.04 0.04 35 1006.5
20260505201559 79 204 7.0 21.7 0.00 0.04 0.04 36 1006.5
20260505201051 78 182 11.3 22.6 0.00 0.04 0.04 38 1006.7
20260505200556 78 199 12.2 22.6 0.00 0.04 0.04 37 1006.7
20260505200054 78 211 10.4 22.6 0.00 0.04 0.04 37 1006.8
20260505195553 79 207 10.4 27.8 0.00 0.04 0.04 36 1006.8
20260505195052 79 162 8.7 27.8 0.00 0.04 0.04 36 1006.8
20260505194605 79 219 12.2 21.7 0.00 0.04 0.04 36 1006.7
20260505194055 79 249 7.0 20.0 0.00 0.04 0.04 37 1006.8
20260505193551 78 216 8.7 20.0 0.00 0.04 0.04 36 1006.8
20260505193056 78 169 8.7 21.7 0.00 0.04 0.04 36 1006.8
20260505192550 78 179 8.7 24.3 0.00 0.04 0.04 36 1006.8
20260505192051 78 199 14.8 24.3 0.00 0.04 0.04 37 1006.9
20260505191558 78 204 10.4 22.6 0.00 0.04 0.04 36 1006.9
20260505191051 79 225 10.4 19.1 0.00 0.04 0.04 36 1007.0
20260505190555 79 211 8.7 17.4 0.00 0.04 0.04 36 1006.9
20260505190053 79 214 11.3 18.2 0.00 0.04 0.04 36 1007.1
20260505185554 79 193 9.6 18.2 0.00 0.04 0.04 36 1007.3
20260505185051 79 191 6.1 13.9 0.00 0.04 0.04 36 1007.3
20260505184555 80 200 6.1 20.9 0.00 0.04 0.04 33 1007.3
20260505184051 80 207 11.3 20.9 0.00 0.04 0.04 33 1007.4
20260505183555 80 245 7.0 25.2 0.00 0.04 0.04 34 1007.6
20260505183101 80 258 8.7 25.2 0.00 0.04 0.04 33 1007.5
20260505182554 79 206 8.7 20.9 0.00 0.04 0.04 34 1007.6
20260505182051 79 245 10.4 20.9 0.00 0.04 0.04 35 1007.6
20260505181555 79 206 9.6 22.6 0.00 0.04 0.04 34 1007.6
20260505181051 79 189 10.4 22.6 0.00 0.04 0.04 36 1007.7
20260505180550 79 178 11.3 20.9 0.00 0.04 0.04 35 1007.7
20260505180056 79 189 7.0 16.5 0.00 0.04 0.04 36 1007.9
20260505175550 79 237 6.1 16.5 0.00 0.04 0.04 39 1008.0
20260505175054 78 206 9.6 18.2 0.00 0.04 0.04 37 1008.0
20260505174557 78 259 9.6 20.9 0.00 0.04 0.04 38 1007.9
20260505174054 79 214 8.7 20.9 0.00 0.04 0.04 36 1007.9
20260505173551 79 229 7.0 14.8 0.00 0.04 0.04 38 1008.0
20260505173056 78 273 6.1 14.8 0.00 0.04 0.04 41 1008.0
20260505172551 79 237 7.0 14.8 0.00 0.04 0.04 39 1008.2
20260505172051 78 204 7.0 13.9 0.00 0.04 0.04 41 1008.2
20260505171555 79 156 5.2 13.0 0.00 0.04 0.04 40 1008.2
20260505171053 79 219 3.5 13.0 0.00 0.04 0.04 40 1008.1
20260505170550 78 216 6.1 13.9 0.00 0.04 0.04 42 1008.2
20260505170057 78 233 3.5 13.9 0.00 0.04 0.04 43 1008.3
20260505165551 78 181 4.3 17.4 0.00 0.04 0.04 43 1008.5
20260505165051 77 206 7.0 17.4 0.00 0.04 0.04 44 1008.6
20260505164601 77 199 4.3 15.6 0.00 0.04 0.04 43 1008.6
20260505164051 77 193 7.0 15.6 0.00 0.04 0.04 42 1008.7
20260505163550 77 241 6.1 15.6 0.00 0.04 0.04 43 1008.8
20260505163100 77 166 6.1 15.6 0.00 0.04 0.04 43 1008.8